RH
86 100 100 89 67 71 82 53 50 89 77 54 44 38 28 37 28 30 27 23 24 25 28 30 23 27 27 35 30 29 30 31 40 30 29 29 27 27 25 28 32 43 43 21
89 100 100 80 65 83 74 49 59 80 58 53 55 37 30 36 28 29 30 28 28 32 33 36 35 36 40 37 33 33 32 34 41 36 31 29 30 29 26 33 37 38 59 18
85 100 97 72 64 66 53 45 70 69 50 34 34 34 30 34 33 32 32 36 36 38 40 42 45 43 41 38 36 59 34 35 32 35 26 26 32 32 28 25 36 26 29 14
83 100 84 66 64 62 69 48 45 43 59 44 34 29 27 31 36 32 31 36 31 33 45 42 45 42 37 40 61 44 36 36 35 33 34 32 27 28 31 28 25 32 16 20
94 100 80 61 69 70 64 48 49 50 40 34 32 39 33 28 34 32 32 33 35 36 39 31 42 38 34 33 43 41 41 42 43 44 41 37 36 29 26 28 26 28 22 23
87 100 84 62 71 75 51 69 50 34 64 39 36 33 27 26 36 45 34 32 38 41 42 42 39 40 34 31 40 46 44 48 43 39 42 41 61 37 27 25 27 28 29 21
98 100 80 64 70 65 45 57 39 48 57 44 30 30 31 33 34 40 44 37 37 51 41 37 38 41 41 40 46 41 51 45 56 59 60 76 19 26 26 26 23 20 23 19
100 96 65 70 67 58 71 67 43 49 99 42 34 34 36 45 48 53 48 54 47 42 41 48 51 61 76 60 49 44 38 45 71 83 40 25 13 23 27 33 22 20 21 20
96 69 63 68 63 62 84 74 47 44 76 59 30 39 46 48 52 58 65 55 47 41 50 60 66 59 42 50 56 50 43 45 48 66 86 85 26 30 34 33 32 24 29 32
64 64 66 66 65 63 82 69 47 43 63 45 45 40 50 46 48 56 59 55 58 47 69 96 70 53 38 42 56 89 80 83 84 66 81 42 25 25 36 38 30 30 36 35
64 66 67 72 65 63 73 82 52 55 69 61 61 51 52 53 46 59 57 52 58 62 85 84 62 83 48 42 36 54 57 75 90 74 93 78 29 39 45 34 34 36 35 38
64 66 71 75 61 57 72 79 63 65 57 69 74 77 74 64 47 50 52 48 50 46 63 80 81 95 91 63 53 48 51 45 46 44 39 32 33 33 33 39 41 39 40 35
72 73 73 69 54 54 68 84 62 66 74 66 60 65 72 74 77 67 52 60 50 51 56 63 76 100 63 95 58 54 45 45 50 48 28 32 32 31 31 32 36 34 34 37
75 71 69 58 51 58 61 65 60 68 71 98 76 72 73 83 78 69 61 57 63 56 52 86 96 97 57 67 50 50 45 48 46 48 36 32 31 34 36 38 40 43 42 48
78 70 63 57 55 62 51 51 57 50 57 92 80 70 78 78 68 62 58 53 50 58 77 97 88 66 71 79 69 62 45 45 56 52 42 43 39 40 45 51 50 52 56 57
70 60 56 57 56 59 45 69 57 60 83 76 98 74 72 75 72 70 70 62 60 56 66 88 64 66 66 95 64 65 60 58 58 56 53 54 54 55 58 60 56 55 54 51
68 62 61 63 54 40 68 71 81 56 64 83 98 90 72 82 73 81 74 74 72 63 84 96 90 77 62 96 73 71 65 61 64 63 62 60 61 61 52 56 60 71 81 86
66 66 58 54 48 57 70 76 57 49 55 62 95 92 88 80 95 97 84 93 79 86 95 93 94 89 90 93 78 71 72 67 68 60 62 59 54 59 65 72 78 84 95 97
58 52 46 51 65 84 84 66 59 51 56 73 98 98 94 80 95 95 91 83 100 88 99 99 84 97 99 86 85 88 86 88 85 69 67 72 76 78 85 93 95 98 100 95
45 41 65 91 99 76 57 63 70 76 83 84 100 86 98 78 98 100 97 98 97 93 96 94 100 97 80 88 90 89 86 75 69 92 97 96 96 96 97 97 88 82 76 70
52 94 97 87 68 70 75 88 85 79 99 92 95 86 92 87 92 99 98 100 99 93 85 95 99 96 91 93 92 86 85 87 84 86 89 78 80 95 98 84 78 78 80 76
79 79 71 68 71 77 96 100 100 95 96 100 100 99 93 99 84 91 96 100 98 93 80 99 97 96 99 98 96 85 82 81 78 76 72 71 69 70 69 66 58 66 79 80
66 74 96 75 99 100 100 100 100 98 100 99 100 100 99 92 85 100 92 100 100 83 98 97 99 100 100 99 96 93 81 72 65 62 61 58 61 69 69 74 78 77 75 77
92 100 100 100 100 99 100 97 100 100 100 100 100 100 100 100 99 100 100 100 100 100 93 90 98 100 99 100 97 69 65 79 61 58 62 70 68 72 78 77 79 84 88 91
90 91 100 100 100 100 100 100 100 100 99 100 100 100 95 100 100 100 100 100 96 85 84 90 95 99 98 99 74 66 75 88 71 67 71 81 79 80 79 89 88 89 88 90
97 96 100 100 100 100 100 100 100 99 100 100 96 99 100 100 99 100 99 96 88 89 91 96 88 94 96 95 92 88 83 70 65 68 73 85 91 90 88 94 90 91 94 94
100 100 100 100 100 100 100 100 99 99 100 100 100 100 99 88 92 95 84 92 86 95 95 92 87 92 94 96 94 85 72 69 74 82 85 89 93 91 79 66 64 69 72 78
Wind_Speed
34 39 45 41 38 32 31 12 8 13 22 8 5 12 7 4 6 5 7 5 5 12 10 8 9 10 2 4 3 5 2 2 4 5 3 2 2 4 7 4 4 1 2 3
33 37 46 44 42 41 21 10 5 5 7 10 8 5 6 5 6 8 7 7 3 4 8 5 5 6 2 3 5 5 6 4 4 5 4 5 7 8 5 4 1 6 3 2
33 30 45 47 43 43 25 9 7 5 6 4 16 12 13 8 3 4 3 5 3 7 5 0 7 7 3 2 2 3 3 3 6 8 1 1 6 11 11 10 4 4 9 9
34 36 47 47 44 45 16 6 7 10 12 11 13 15 14 11 7 3 5 4 6 7 5 5 5 5 5 3 5 3 3 6 4 1 1 3 4 7 13 16 13 7 8 11
34 34 44 45 45 46 15 8 5 4 14 13 14 13 11 15 6 6 6 7 8 7 4 7 9 9 7 4 6 5 2 3 2 3 2 2 7 9 11 15 15 15 18 19
36 41 43 43 44 40 10 4 3 9 5 12 12 12 14 14 11 2 3 9 7 5 4 4 7 7 7 5 6 6 4 5 4 2 2 3 7 15 17 12 12 14 14 16
34 45 43 41 43 41 15 5 5 5 7 11 14 14 11 13 10 7 4 4 4 5 16 16 14 14 12 10 9 3 5 5 1 1 2 3 1 1 3 13 16 15 18 13
43 40 38 39 39 43 6 6 4 4 4 10 11 13 11 10 6 5 6 4 3 15 3 4 4 2 2 4 7 5 1 4 3 2 4 6 11 3 3 4 6 5 12 12
36 36 37 37 38 49 5 7 7 3 7 7 9 13 12 7 6 5 4 6 12 2 2 2 4 4 3 4 4 3 4 3 1 3 3 4 3 3 1 2 5 6 4 5
35 35 35 36 41 50 5 6 8 4 4 4 8 12 12 5 5 5 6 8 3 1 2 2 2 3 1 5 5 4 2 1 3 3 4 6 1 2 3 3 3 7 5 5
33 33 33 35 45 52 7 6 7 2 3 5 1 3 6 5 6 6 8 6 2 2 2 2 3 2 4 3 2 4 5 6 3 3 3 4 6 6 3 4 4 6 6 5
29 30 32 36 45 50 10 5 11 13 6 4 6 8 5 3 2 6 11 1 6 6 3 1 3 2 1 1 2 3 3 3 1 6 1 3 7 6 4 5 7 8 7 6
27 29 33 38 46 44 7 11 15 8 4 4 4 4 5 6 3 1 5 2 4 4 3 4 2 3 4 4 4 3 4 4 3 1 1 6 7 8 10 9 11 12 11 10
26 31 35 41 49 35 10 10 12 7 4 4 3 3 4 9 2 0 2 9 9 7 2 2 3 3 3 2 0 3 2 7 4 4 10 6 5 3 5 9 9 9 8 7
27 32 37 42 45 26 16 14 8 4 1 4 4 4 8 11 7 11 12 15 8 3 3 2 2 3 4 1 0 2 2 2 2 3 7 5 7 10 10 10 10 11 9 5
31 35 38 41 35 25 11 4 3 5 6 4 4 2 4 9 12 16 13 7 4 3 3 3 3 2 1 4 4 4 6 6 7 5 13 10 9 7 11 10 10 10 10 11
35 40 39 36 32 21 7 2 2 7 5 3 4 3 3 6 4 4 4 6 3 3 3 3 3 2 2 3 3 8 8 8 6 9 9 4 13 7 10 13 17 22 24 23
30 30 28 25 23 23 9 5 5 6 5 3 4 2 2 7 3 2 4 2 2 5 3 2 2 2 1 2 5 8 9 9 6 10 9 8 10 12 13 17 19 18 14 14
26 24 22 13 8 3 3 4 10 14 7 3 3 4 3 2 2 2 2 2 3 1 2 2 2 2 1 2 4 5 8 6 2 8 11 12 14 14 14 14 13 12 8 8
12 7 7 3 3 4 4 4 3 5 5 5 3 1 3 0 1 2 2 2 2 3 2 1 2 2 4 3 2 3 5 6 9 10 10 12 13 12 11 11 12 11 9 7
7 4 3 3 4 2 4 3 4 3 3 3 2 2 4 2 2 3 2 2 0 3 3 2 2 3 2 3 4 4 8 10 14 19 15 15 13 10 8 7 6 4 3 3
8 13 8 4 4 3 6 3 1 3 2 1 2 2 3 2 1 3 1 2 1 3 4 2 3 3 7 6 7 11 14 16 16 15 13 10 9 7 6 4 2 3 4 5
5 4 4 3 4 5 3 5 1 2 1 1 1 3 2 2 3 3 2 3 2 3 2 1 2 6 6 5 6 9 9 10 10 9 7 6 6 6 6 5 5 5 5 6
5 4 4 3 2 3 2 2 3 2 2 2 3 3 2 1 3 1 3 1 2 4 4 3 4 7 6 5 4 8 8 5 6 7 7 7 6 7 8 8 9 10 9 9
4 3 3 3 1 3 2 2 2 2 1 1 3 3 2 2 3 2 3 4 3 2 1 3 6 8 7 7 8 7 5 4 4 5 7 7 7 7 9 10 10 11 12 13
3 5 3 2 2 2 1 2 2 1 1 1 2 3 2 2 2 3 2 2 2 3 3 5 9 10 7 7 5 5 3 4 6 7 8 8 9 9 7 7 11 11 10 11
3 3 3 2 3 2 1 2 2 3 2 2 1 2 2 3 2 3 1 1 3 5 6 6 8 9 8 8 7 4 8 8 8 10 9 8 7 6 8 9 12 12 10 11
Wind_Direction
226 221 213 203 195 186 168 171 197 155 152 182 199 211 192 163 181 183 213 199 166 183 175 174 193 195 254 165 175 189 120 129 174 197 103 319 282 218 205 239 181 226 314 296
227 218 203 196 191 175 166 172 140 158 200 187 191 177 171 206 178 193 189 172 175 174 169 175 185 173 91 186 198 176 173 196 170 168 176 190 226 197 197 119 117 211 189 252
225 208 198 193 188 181 177 167 163 150 202 232 187 182 185 179 164 170 169 135 139 144 157 112 168 157 141 128 145 46 196 196 240 240 42 194 197 198 196 203 202 209 238 274
222 206 195 192 187 183 192 193 178 168 183 198 198 185 179 179 167 196 186 143 204 168 154 161 165 159 146 145 153 152 234 236 216 198 102 223 246 219 203 215 229 226 269 254
217 204 196 191 186 181 215 164 158 180 162 175 189 180 192 187 161 180 172 181 159 167 175 206 186 169 188 177 172 181 165 205 187 225 217 275 262 244 234 233 245 253 263 268
211 208 199 193 186 176 193 127 116 171 160 181 187 182 183 194 152 78 54 146 140 149 88 59 64 81 81 115 166 164 168 156 163 238 350 279 281 241 227 226 229 242 250 261
211 198 197 191 188 181 184 157 139 142 162 194 194 177 177 179 186 144 105 130 124 111 122 106 84 81 82 84 70 56 139 128 74 129 223 222 340 163 272 245 255 250 260 267
192 197 193 191 188 186 221 162 171 128 124 189 187 182 162 132 115 99 113 63 66 145 151 114 114 73 72 65 50 53 20 143 124 176 219 316 279 189 214 206 290 325 269 275
195 193 190 190 188 190 203 158 135 120 127 209 168 167 174 158 151 121 87 75 122 133 87 131 161 183 177 163 142 70 78 59 235 149 218 247 49 66 199 228 280 15 302 275
188 187 188 190 187 187 178 141 131 107 111 140 160 179 178 149 144 113 129 148 189 288 112 112 161 172 340 175 181 175 124 55 210 176 242 281 293 233 159 244 17 351 302 231
184 185 188 189 187 188 171 131 115 85 89 118 61 136 146 142 176 149 139 136 188 133 162 166 164 151 185 200 137 183 180 162 180 141 205 270 158 144 238 11 336 331 316 265
181 187 191 189 187 186 178 111 113 91 71 80 81 78 54 37 53 126 173 58 151 166 122 134 112 137 151 158 202 191 222 224 230 214 242 97 195 292 322 322 306 308 295 296
183 186 186 183 179 179 180 123 124 90 100 108 151 97 37 46 30 137 142 197 148 157 26 138 117 136 163 163 220 174 215 181 230 243 191 248 252 268 283 282 278 291 290 280
178 180 179 175 175 177 159 132 137 90 94 117 108 17 41 348 1 119 70 127 101 110 115 107 134 124 226 184 108 232 29 167 205 251 284 291 260 292 316 315 313 302 292 298
167 169 170 171 171 169 118 109 112 193 296 130 118 115 28 26 74 91 109 126 121 133 109 104 119 114 145 64 253 246 200 6 228 266 4 316 315 345 341 323 332 335 327 339
148 154 154 158 164 169 155 56 308 189 182 116 124 79 32 41 72 74 66 62 71 80 89 101 96 73 190 150 187 75 23 3 347 300 320 315 330 41 10 25 24 45 57 70
138 142 148 156 157 140 95 141 200 167 148 106 99 100 43 1 42 46 38 38 68 53 101 73 117 119 205 163 194 14 352 343 26 2 332 132 35 40 51 68 73 72 72 74
121 128 132 137 132 102 106 59 107 136 118 71 111 88 135 5 57 81 355 57 59 35 98 109 105 102 48 145 32 5 360 346 48 25 49 78 80 73 70 80 91 84 73 72
110 113 114 114 77 99 112 83 68 66 57 105 83 133 146 23 64 46 65 11 72 6 95 99 165 138 142 41 352 2 358 358 2 71 73 79 81 82 81 80 76 82 80 88
78 76 45 63 28 70 38 27 30 27 24 34 85 83 108 10 144 80 94 32 104 154 86 126 80 87 89 46 33 332 350 4 159 98 89 93 89 95 99 104 116 122 136 145
36 47 64 111 49 67 36 63 47 359 55 37 74 73 120 12 126 113 0 121 103 167 133 219 141 130 130 92 90 79 74 78 86 106 121 123 123 130 126 128 112 82 22 338
100 114 106 61 33 61 76 44 17 41 94 73 88 78 79 93 101 106 132 98 153 170 132 164 173 119 118 119 111 104 105 108 109 111 110 104 95 88 82 76 47 32 11 3
77 64 59 19 339 54 152 167 131 126 138 122 136 82 64 118 74 79 122 163 136 136 176 182 73 127 140 145 131 121 113 106 108 105 98 88 77 64 63 70 50 44 45 25
51 41 53 14 108 61 46 51 86 93 99 94 82 76 66 56 73 65 117 80 162 203 206 187 144 150 144 137 126 140 120 89 80 79 80 76 83 85 74 68 60 47 31 11
71 33 69 59 62 44 32 34 80 42 89 108 106 77 65 48 107 52 126 166 205 233 151 113 139 140 144 137 150 135 118 119 98 90 85 82 83 87 79 61 43 27 15 4
52 51 88 86 84 54 32 33 74 17 55 41 39 100 99 85 94 171 176 194 186 151 126 130 144 148 145 149 139 126 103 111 111 101 98 82 70 64 65 48 26 15 10 3
50 44 17 26 61 67 49 34 36 337 47 85 132 136 94 127 141 148 182 118 121 130 126 140 152 155 157 153 157 140 131 121 110 99 87 77 63 55 42 23 7 358 354 348